Time,TemperatureF,DewpointF,PressureIn,WindDirection,WindDirectionDegrees,WindSpeedMPH,WindSpeedGustMPH,Humidity,HourlyPrecipIn,Conditions,Clouds,dailyrainin,SoftwareType,DateUTC
2013-01-31 13:55:00,46.4,15.1,29.46,NNW,334,3.6,3.6,28,0.00,NA,NA,-99.99,VWS Version 10.38,2013-01-31 18:55:00,
2013-01-31 14:00:00,46.8,14.6,29.49,SW,233,5.8,5.8,27,0.00,NA,NA,-99.99,VWS Version 10.38,2013-01-31 19:00:00,
2013-01-31 14:05:00,46.6,14.4,29.49,WNW,283,8.7,8.7,27,0.00,NA,NA,-99.99,VWS Version 10.38,2013-01-31 19:05:00,
2013-01-31 14:10:00,46.8,14.6,29.49,NW,319,12.3,12.3,27,0.00,NA,NA,-99.99,VWS Version 10.38,2013-01-31 19:10:00,
2013-01-31 14:15:00,46.6,14.4,29.49,NW,308,6.3,6.3,27,0.00,NA,NA,-99.99,VWS Version 10.38,2013-01-31 19:15:00,
2013-01-31 14:20:00,46.4,14.2,29.49,WNW,297,7.2,7.2,27,0.00,NA,NA,-99.99,VWS Version 10.38,2013-01-31 19:20:00,
2013-01-31 14:25:00,45.9,13.8,29.49,NW,316,8.7,8.7,27,0.00,NA,NA,-99.99,VWS Version 10.38,2013-01-31 19:25:00,
2013-01-31 14:30:00,45.7,14.5,29.49,SW,219,7.6,7.6,28,0.00,NA,NA,-99.99,VWS Version 10.38,2013-01-31 19:30:00,
2013-01-31 14:35:00,46.4,14.2,29.49,WSW,244,8.1,8.1,27,0.00,NA,NA,-99.99,VWS Version 10.38,2013-01-31 19:35:00,
2013-01-31 14:40:00,46.9,14.7,29.49,West,259,9.2,9.2,27,0.00,NA,NA,-99.99,VWS Version 10.38,2013-01-31 19:40:00,
2013-01-31 14:45:00,47.1,14.9,29.49,West,265,5.4,5.4,27,0.00,NA,NA,-99.99,VWS Version 10.38,2013-01-31 19:45:00,
2013-01-31 14:50:00,46.2,12.4,29.52,WNW,286,8.1,8.1,25,0.00,NA,NA,-99.99,VWS Version 10.38,2013-01-31 19:50:00,
2013-01-31 14:55:00,45.1,11.4,29.52,NW,323,11.4,11.4,25,0.00,NA,NA,-99.99,VWS Version 10.38,2013-01-31 19:55:00,
2013-01-31 15:05:00,45.7,11.9,29.52,West,274,9.6,9.6,25,0.00,NA,NA,-99.99,VWS Version 10.38,2013-01-31 20:05:00,
2013-01-31 15:10:00,46.2,12.4,29.52,SSW,197,5.4,5.4,25,0.00,NA,NA,-99.99,VWS Version 10.38,2013-01-31 20:10:00,
2013-01-31 15:15:00,46.0,12.2,29.52,North,353,17.4,17.4,25,0.00,NA,NA,-99.99,VWS Version 10.38,2013-01-31 20:15:00,
2013-01-31 15:20:00,45.9,12.0,29.52,WNW,302,6.7,6.7,25,0.00,NA,NA,-99.99,VWS Version 10.38,2013-01-31 20:20:00,
2013-01-31 15:25:00,46.2,12.4,29.52,West,263,4.9,4.9,25,0.00,NA,NA,-99.99,VWS Version 10.38,2013-01-31 20:25:00,
2013-01-31 15:30:00,46.6,11.7,29.52,NNW,340,5.4,5.4,24,0.00,NA,NA,-99.99,VWS Version 10.38,2013-01-31 20:30:00,
2013-01-31 15:40:00,45.3,11.6,29.55,WNW,282,12.8,12.8,25,0.00,NA,NA,-99.99,VWS Version 10.38,2013-01-31 20:40:00,
2013-01-31 15:45:00,44.8,11.1,29.55,WSW,248,13.6,13.6,25,0.00,NA,NA,-99.99,VWS Version 10.38,2013-01-31 20:45:00,
2013-01-31 15:50:00,44.6,11.0,29.55,WNW,302,10.5,10.5,25,0.00,NA,NA,-99.99,VWS Version 10.38,2013-01-31 20:50:00,
2013-01-31 15:55:00,43.5,10.0,29.55,NW,324,15.4,15.4,25,0.00,NA,NA,-99.99,VWS Version 10.38,2013-01-31 20:55:00,
2013-01-31 16:00:00,42.8,9.4,29.55,West,268,5.8,5.8,25,0.00,NA,NA,-99.99,VWS Version 10.38,2013-01-31 21:00:00,
2013-01-31 16:05:00,42.3,9.8,29.55,WNW,303,3.1,3.1,26,0.00,NA,NA,-99.99,VWS Version 10.38,2013-01-31 21:05:00,
2013-01-31 16:14:00,41.5,9.2,29.55,WNW,300,8.3,8.3,26,0.00,NA,NA,-99.99,VWS Version 10.38,2013-01-31 21:14:00,
2013-01-31 16:19:00,41.4,9.1,29.55,West,272,4.9,4.9,26,0.00,NA,NA,-99.99,VWS Version 10.38,2013-01-31 21:19:00,
2013-01-31 16:24:00,41.2,8.9,29.55,West,279,4.9,4.9,26,0.00,NA,NA,-99.99,VWS Version 10.38,2013-01-31 21:24:00,
2013-01-31 16:29:00,41.2,8.9,29.55,West,275,10.5,10.5,26,0.00,NA,NA,-99.99,VWS Version 10.38,2013-01-31 21:29:00,
2013-01-31 16:34:00,41.2,10.6,29.55,SSW,213,7.6,7.6,28,0.00,NA,NA,-99.99,VWS Version 10.38,2013-01-31 21:34:00,
2013-01-31 16:39:00,41.2,10.6,29.55,WNW,302,5.4,5.4,28,0.00,NA,NA,-99.99,VWS Version 10.38,2013-01-31 21:39:00,
2013-01-31 16:49:00,41.0,10.4,29.58,WNW,300,4.0,4.0,28,0.00,NA,NA,-99.99,VWS Version 10.38,2013-01-31 21:49:00,
2013-01-31 16:54:00,40.6,10.1,29.58,SW,226,8.3,8.3,28,0.00,NA,NA,-99.99,VWS Version 10.38,2013-01-31 21:54:00,
2013-01-31 16:59:00,40.6,10.1,29.58,West,265,8.3,8.3,28,0.00,NA,NA,-99.99,VWS Version 10.38,2013-01-31 21:59:00,
2013-01-31 17:04:00,40.6,8.4,29.58,WSW,245,6.3,6.3,26,0.00,NA,NA,-99.99,VWS Version 10.38,2013-01-31 22:04:00,
2013-01-31 17:09:00,40.5,8.3,29.58,WNW,298,5.4,5.4,26,0.00,NA,NA,-99.99,VWS Version 10.38,2013-01-31 22:09:00,
2013-01-31 17:19:00,39.6,7.5,29.61,NNE,21,4.0,4.0,26,0.00,NA,NA,-99.99,VWS Version 10.38,2013-01-31 22:19:00,
2013-01-31 17:24:00,39.0,7.1,29.61,West,273,3.1,3.1,26,0.00,NA,NA,-99.99,VWS Version 10.38,2013-01-31 22:24:00,
2013-01-31 17:29:00,38.7,6.7,29.61,SW,220,5.8,5.8,26,0.00,NA,NA,-99.99,VWS Version 10.38,2013-01-31 22:29:00,
2013-01-31 17:34:00,38.3,6.4,29.61,NW,314,8.7,8.7,26,0.00,NA,NA,-99.99,VWS Version 10.38,2013-01-31 22:34:00,
2013-01-31 17:39:00,38.1,6.3,29.61,West,280,11.4,11.4,26,0.00,NA,NA,-99.99,VWS Version 10.38,2013-01-31 22:39:00,
2013-01-31 17:44:00,38.1,6.3,29.61,SSW,207,5.8,5.8,26,0.00,NA,NA,-99.99,VWS Version 10.38,2013-01-31 22:44:00,
2013-01-31 17:54:00,37.9,8.5,29.64,WSW,254,10.5,10.5,29,0.00,NA,NA,-99.99,VWS Version 10.38,2013-01-31 22:54:00,
2013-01-31 17:59:00,37.6,8.2,29.64,SW,236,13.6,13.6,29,0.00,NA,NA,-99.99,VWS Version 10.38,2013-01-31 22:59:00,
2013-01-31 18:04:00,37.4,8.1,29.64,West,278,8.3,8.3,29,0.00,NA,NA,-99.99,VWS Version 10.38,2013-01-31 23:04:00,
2013-01-31 18:09:00,37.0,6.2,29.64,NW,304,17.9,17.9,27,0.00,NA,NA,-99.99,VWS Version 10.38,2013-01-31 23:09:00,
2013-01-31 18:14:00,37.0,7.8,29.64,West,268,8.3,8.3,29,0.00,NA,NA,-99.99,VWS Version 10.38,2013-01-31 23:14:00,
2013-01-31 18:19:00,36.9,7.6,29.67,NW,310,6.3,6.3,29,0.00,NA,NA,-99.99,VWS Version 10.38,2013-01-31 23:19:00,
2013-01-31 18:29:00,36.3,7.1,29.67,WNW,302,8.3,8.3,29,0.00,NA,NA,-99.99,VWS Version 10.38,2013-01-31 23:29:00,
2013-01-31 18:34:00,36.1,7.0,29.67,WNW,303,5.4,5.4,29,0.00,NA,NA,-99.99,VWS Version 10.38,2013-01-31 23:34:00,
2013-01-31 18:39:00,35.8,6.7,29.67,NNW,339,15.4,15.4,29,0.00,NA,NA,-99.99,VWS Version 10.38,2013-01-31 23:39:00,
2013-01-31 18:44:00,35.8,6.7,29.67,NNW,330,7.6,7.6,29,0.00,NA,NA,-99.99,VWS Version 10.38,2013-01-31 23:44:00,
2013-01-31 18:49:00,35.6,7.2,29.70,WNW,290,13.2,13.2,30,0.00,NA,NA,-99.99,VWS Version 10.38,2013-01-31 23:49:00,
2013-01-31 18:54:00,35.8,7.4,29.70,West,265,8.7,8.7,30,0.00,NA,NA,-99.99,VWS Version 10.38,2013-01-31 23:54:00,
2013-01-31 19:04:00,35.6,7.2,29.70,West,266,14.5,14.5,30,0.00,NA,NA,-99.99,VWS Version 10.38,2013-02-01 00:04:00,
2013-01-31 19:09:00,35.4,7.1,29.70,WNW,285,8.1,8.1,30,0.00,NA,NA,-99.99,VWS Version 10.38,2013-02-01 00:09:00,
2013-01-31 19:14:00,35.2,6.9,29.70,WNW,289,8.3,8.3,30,0.00,NA,NA,-99.99,VWS Version 10.38,2013-02-01 00:14:00,
2013-01-31 19:19:00,35.1,6.8,29.70,West,266,8.1,8.1,30,0.00,NA,NA,-99.99,VWS Version 10.38,2013-02-01 00:19:00,
2013-01-31 19:29:00,35.1,7.5,29.70,SW,214,15.0,15.0,31,0.00,NA,NA,-99.99,VWS Version 10.38,2013-02-01 00:29:00,
2013-01-31 19:34:00,35.1,7.5,29.73,WSW,241,14.5,14.5,31,0.00,NA,NA,-99.99,VWS Version 10.38,2013-02-01 00:34:00,
2013-01-31 19:39:00,34.9,7.3,29.73,North,353,8.1,8.1,31,0.00,NA,NA,-99.99,VWS Version 10.38,2013-02-01 00:39:00,
2013-01-31 19:44:00,34.5,7.0,29.73,SW,227,8.1,8.1,31,0.00,NA,NA,-99.99,VWS Version 10.38,2013-02-01 00:44:00,
2013-01-31 19:49:00,34.0,6.5,29.73,West,275,2.7,2.7,31,0.00,NA,NA,-99.99,VWS Version 10.38,2013-02-01 00:49:00,
2013-01-31 19:59:00,33.6,6.2,29.73,NW,307,11.0,11.0,31,0.00,NA,NA,-99.99,VWS Version 10.38,2013-02-01 00:59:00,
2013-01-31 20:04:00,33.3,5.9,29.76,SW,236,7.6,7.6,31,0.00,NA,NA,-99.99,VWS Version 10.38,2013-02-01 01:04:00,
2013-01-31 20:09:00,33.3,5.9,29.76,WNW,296,7.6,7.6,31,0.00,NA,NA,-99.99,VWS Version 10.38,2013-02-01 01:09:00,
2013-01-31 20:14:00,33.3,5.9,29.76,NW,320,4.0,4.0,31,0.00,NA,NA,-99.99,VWS Version 10.38,2013-02-01 01:14:00,
2013-01-31 20:19:00,33.4,6.8,29.76,WSW,240,8.1,8.1,32,0.00,NA,NA,-99.99,VWS Version 10.38,2013-02-01 01:19:00,
2013-01-31 20:24:00,33.4,6.8,29.76,WNW,295,6.3,6.3,32,0.00,NA,NA,-99.99,VWS Version 10.38,2013-02-01 01:24:00,
2013-01-31 20:34:00,33.3,6.6,29.76,West,273,8.1,8.1,32,0.00,NA,NA,-99.99,VWS Version 10.38,2013-02-01 01:34:00,
2013-01-31 20:39:00,32.9,6.3,29.76,SW,234,11.9,11.9,32,0.00,NA,NA,-99.99,VWS Version 10.38,2013-02-01 01:39:00,
2013-01-31 20:44:00,32.5,6.6,29.76,WSW,252,10.1,10.1,33,0.00,NA,NA,-99.99,VWS Version 10.38,2013-02-01 01:44:00,
2013-01-31 20:49:00,32.5,5.3,29.76,WSW,256,8.3,8.3,31,0.00,NA,NA,-99.99,VWS Version 10.38,2013-02-01 01:49:00,
2013-01-31 20:54:00,32.4,5.1,29.76,WSW,258,9.6,9.6,31,0.00,NA,NA,-99.99,VWS Version 10.38,2013-02-01 01:54:00,
2013-01-31 20:59:00,32.4,5.1,29.76,SSW,208,10.1,10.1,31,0.00,NA,NA,-99.99,VWS Version 10.38,2013-02-01 01:59:00,
2013-01-31 21:09:00,32.2,5.0,29.76,NW,311,12.8,12.8,31,0.00,NA,NA,-99.99,VWS Version 10.38,2013-02-01 02:09:00,
2013-01-31 21:14:00,31.8,4.6,29.76,SW,228,8.1,8.1,31,0.00,NA,NA,-99.99,VWS Version 10.38,2013-02-01 02:14:00,
2013-01-31 21:19:00,31.5,4.3,29.79,SSW,207,8.1,8.1,31,0.00,NA,NA,-99.99,VWS Version 10.38,2013-02-01 02:19:00,
2013-01-31 21:24:00,31.5,4.3,29.79,NW,322,8.3,8.3,31,0.00,NA,NA,-99.99,VWS Version 10.38,2013-02-01 02:24:00,
2013-01-31 21:29:00,31.3,4.2,29.79,South,178,10.1,10.1,31,0.00,NA,NA,-99.99,VWS Version 10.38,2013-02-01 02:29:00,
2013-01-31 21:34:00,31.3,3.5,29.79,WSW,240,8.7,8.7,30,0.00,NA,NA,-99.99,VWS Version 10.38,2013-02-01 02:34:00,
2013-01-31 21:39:00,31.1,3.3,29.79,WSW,252,5.4,5.4,30,0.00,NA,NA,-99.99,VWS Version 10.38,2013-02-01 02:39:00,
2013-01-31 21:44:00,30.9,3.1,29.79,NW,310,10.1,10.1,30,0.00,NA,NA,-99.99,VWS Version 10.38,2013-02-01 02:44:00,
2013-01-31 21:49:00,30.7,3.0,29.79,WSW,240,5.8,5.8,30,0.00,NA,NA,-99.99,VWS Version 10.38,2013-02-01 02:49:00,
2013-01-31 21:54:00,30.6,2.8,29.79,SW,234,8.7,8.7,30,0.00,NA,NA,-99.99,VWS Version 10.38,2013-02-01 02:54:00,
2013-01-31 21:59:00,30.6,2.8,29.79,SW,236,4.0,4.0,30,0.00,NA,NA,-99.99,VWS Version 10.38,2013-02-01 02:59:00,
2013-01-31 22:04:00,30.4,2.7,29.79,SW,223,10.1,10.1,30,0.00,NA,NA,-99.99,VWS Version 10.38,2013-02-01 03:04:00,
2013-01-31 22:09:00,30.2,3.2,29.79,WSW,251,8.3,8.3,31,0.00,NA,NA,-99.99,VWS Version 10.38,2013-02-01 03:09:00,
2013-01-31 22:14:00,30.2,3.2,29.79,SW,233,2.7,2.7,31,0.00,NA,NA,-99.99,VWS Version 10.38,2013-02-01 03:14:00,
2013-01-31 22:19:00,30.0,3.1,29.79,SSW,211,5.4,5.4,31,0.00,NA,NA,-99.99,VWS Version 10.38,2013-02-01 03:19:00,
2013-01-31 22:24:00,29.8,2.9,29.79,NNW,341,5.8,5.8,31,0.00,NA,NA,-99.99,VWS Version 10.38,2013-02-01 03:24:00,
2013-01-31 22:29:00,29.7,2.7,29.79,WSW,243,7.2,7.2,31,0.00,NA,NA,-99.99,VWS Version 10.38,2013-02-01 03:29:00,
2013-01-31 22:39:00,29.7,2.7,29.79,SW,222,4.9,4.9,31,0.00,NA,NA,-99.99,VWS Version 10.38,2013-02-01 03:39:00,
2013-01-31 22:44:00,29.7,2.7,29.79,SW,226,5.8,5.8,31,0.00,NA,NA,-99.99,VWS Version 10.38,2013-02-01 03:44:00,
2013-01-31 22:49:00,29.7,2.7,29.82,West,264,5.4,5.4,31,0.00,NA,NA,-99.99,VWS Version 10.38,2013-02-01 03:49:00,
2013-01-31 22:54:00,29.5,2.6,29.82,SSW,200,5.4,5.4,31,0.00,NA,NA,-99.99,VWS Version 10.38,2013-02-01 03:54:00,
2013-01-31 22:59:00,29.5,2.6,29.82,West,270,6.3,6.3,31,0.00,NA,NA,-99.99,VWS Version 10.38,2013-02-01 03:59:00,
2013-01-31 23:09:00,29.3,2.4,29.82,WSW,247,5.4,5.4,31,0.00,NA,NA,-99.99,VWS Version 10.38,2013-02-01 04:09:00,
2013-01-31 23:14:00,29.1,2.3,29.82,SW,231,5.8,5.8,31,0.00,NA,NA,-99.99,VWS Version 10.38,2013-02-01 04:14:00,
2013-01-31 23:19:00,28.9,2.1,29.82,NNW,332,5.4,5.4,31,0.00,NA,NA,-99.99,VWS Version 10.38,2013-02-01 04:19:00,
2013-01-31 23:24:00,29.1,2.3,29.82,WNW,284,5.4,5.4,31,0.00,NA,NA,-99.99,VWS Version 10.38,2013-02-01 04:24:00,
2013-01-31 23:29:00,29.3,2.4,29.82,WNW,298,6.3,6.3,31,0.00,NA,NA,-99.99,VWS Version 10.38,2013-02-01 04:29:00,
2013-01-31 23:39:00,29.7,2.7,29.82,WSW,243,3.6,3.6,31,0.00,NA,NA,-99.99,VWS Version 10.38,2013-02-01 04:39:00,
2013-01-31 23:44:00,29.8,3.6,29.82,SW,216,16.8,16.8,32,0.00,NA,NA,-99.99,VWS Version 10.38,2013-02-01 04:44:00,
2013-01-31 23:49:00,29.7,3.4,29.82,West,267,8.3,8.3,32,0.00,NA,NA,-99.99,VWS Version 10.38,2013-02-01 04:49:00,
2013-01-31 23:54:00,29.5,3.3,29.82,SW,220,4.0,4.0,32,0.00,NA,NA,-99.99,VWS Version 10.38,2013-02-01 04:54:00,
2013-01-31 23:59:00,29.3,3.1,29.82,WSW,257,4.0,4.0,32,0.00,NA,NA,-99.99,VWS Version 10.38,2013-02-01 04:59:00,